TimeEST,TemperatureF,Dew PointF,Humidity,Sea Level PressureIn,VisibilityMPH,Wind Direction,Wind SpeedMPH,Gust SpeedMPH,PrecipitationIn,Events,Conditions,WindDirDegrees,DateUTC
12:15 AM,24.6,22.1,90,30.25,10.0,North,-9999.0,-,N/A,,Clear,0,2014-02-17 05:15:00
12:35 AM,22.8,21.2,93,30.25,10.0,North,-9999.0,-,N/A,,Clear,0,2014-02-17 05:35:00
12:55 AM,22.1,20.8,95,30.25,10.0,North,-9999.0,-,N/A,,Clear,0,2014-02-17 05:55:00
1:15 AM,20.8,19.8,96,30.25,10.0,North,-9999.0,-,N/A,,Clear,0,2014-02-17 06:15:00
1:35 AM,19.4,18.5,96,30.25,10.0,North,-9999.0,-,N/A,,Clear,0,2014-02-17 06:35:00
1:55 AM,18.5,17.6,96,30.25,10.0,North,-9999.0,-,N/A,,Clear,0,2014-02-17 06:55:00
2:15 AM,18.3,17.6,97,30.26,10.0,North,-9999.0,-,N/A,,Clear,0,2014-02-17 07:15:00
2:35 AM,17.2,16.5,97,30.26,10.0,North,-9999.0,-,N/A,,Clear,0,2014-02-17 07:35:00
2:55 AM,16.5,15.8,97,30.25,10.0,North,-9999.0,-,N/A,,Clear,0,2014-02-17 07:55:00
3:15 AM,16.3,15.8,98,30.25,10.0,North,-9999.0,-,N/A,,Scattered Clouds,0,2014-02-17 08:15:00
3:35 AM,16.0,15.4,98,30.25,10.0,North,-9999.0,-,N/A,,Mostly Cloudy,0,2014-02-17 08:35:00
3:55 AM,15.8,15.3,98,30.26,10.0,North,-9999.0,-,N/A,,Scattered Clouds,0,2014-02-17 08:55:00
4:15 AM,15.4,14.7,97,30.27,10.0,North,-9999.0,-,N/A,,Mostly Cloudy,0,2014-02-17 09:15:00
4:35 AM,15.4,14.7,97,30.28,10.0,North,-9999.0,-,N/A,,Scattered Clouds,0,2014-02-17 09:35:00
4:55 AM,14.9,14.0,96,30.28,10.0,North,-9999.0,-,N/A,,Clear,0,2014-02-17 09:55:00
5:15 AM,14.9,14.2,97,30.29,10.0,North,-9999.0,-,N/A,,Clear,0,2014-02-17 10:15:00
5:35 AM,14.9,14.0,96,30.29,10.0,North,-9999.0,-,N/A,,Clear,0,2014-02-17 10:35:00
5:55 AM,14.9,14.0,96,30.28,10.0,North,-9999.0,-,N/A,,Clear,0,2014-02-17 10:55:00
6:15 AM,14.9,14.0,96,30.28,10.0,North,-9999.0,-,N/A,,Clear,0,2014-02-17 11:15:00
6:35 AM,15.1,14.4,97,30.29,10.0,North,-9999.0,-,N/A,,Clear,0,2014-02-17 11:35:00
6:55 AM,14.9,14.0,96,30.30,10.0,North,-9999.0,-,N/A,,Clear,0,2014-02-17 11:55:00
7:15 AM,15.4,14.7,97,30.30,10.0,North,-9999.0,-,N/A,,Clear,0,2014-02-17 12:15:00
7:35 AM,16.5,15.8,97,30.30,10.0,North,-9999.0,-,N/A,,Clear,0,2014-02-17 12:35:00
7:55 AM,16.7,16.0,97,30.31,10.0,North,-9999.0,-,N/A,,Clear,0,2014-02-17 12:55:00
8:15 AM,18.5,17.8,97,30.30,10.0,North,-9999.0,-,N/A,,Clear,0,2014-02-17 13:15:00
8:35 AM,21.6,21.0,98,30.29,10.0,North,-9999.0,-,N/A,,Clear,0,2014-02-17 13:35:00
8:55 AM,24.8,24.3,98,30.28,10.0,North,-9999.0,-,N/A,,Clear,0,2014-02-17 13:55:00
9:15 AM,26.4,25.0,94,30.27,10.0,North,-9999.0,-,N/A,,Scattered Clouds,0,2014-02-17 14:15:00
9:35 AM,28.9,25.9,88,30.27,10.0,North,-9999.0,-,N/A,,Mostly Cloudy,0,2014-02-17 14:35:00
9:55 AM,30.7,24.1,76,30.26,10.0,North,-9999.0,-,N/A,,Scattered Clouds,0,2014-02-17 14:55:00
10:15 AM,31.8,23.7,72,30.25,10.0,North,-9999.0,-,N/A,,Scattered Clouds,0,2014-02-17 15:15:00
10:35 AM,33.1,23.2,67,30.25,10.0,North,-9999.0,-,N/A,,Scattered Clouds,0,2014-02-17 15:35:00
10:55 AM,34.7,23.4,63,30.25,10.0,North,-9999.0,-,N/A,,Scattered Clouds,0,2014-02-17 15:55:00
11:15 AM,37.0,23.5,58,30.24,10.0,North,-9999.0,-,N/A,,Clear,0,2014-02-17 16:15:00
11:35 AM,39.2,23.0,52,30.23,10.0,North,-9999.0,-,N/A,,Clear,0,2014-02-17 16:35:00
11:55 AM,41.9,23.2,47,30.23,10.0,North,-9999.0,-,N/A,,Clear,0,2014-02-17 16:55:00
12:15 PM,41.9,22.5,46,30.21,10.0,North,-9999.0,-,N/A,,Scattered Clouds,0,2014-02-17 17:15:00
12:35 PM,43.5,22.3,43,30.19,10.0,North,-9999.0,-,N/A,,Mostly Cloudy,0,2014-02-17 17:35:00
12:55 PM,44.1,22.8,43,30.17,10.0,North,-9999.0,-,N/A,,Overcast,0,2014-02-17 17:55:00
1:15 PM,44.6,22.1,41,30.15,10.0,North,-9999.0,-,N/A,,Overcast,0,2014-02-17 18:15:00
1:35 PM,44.6,22.6,42,30.12,10.0,North,-9999.0,-,N/A,,Overcast,0,2014-02-17 18:35:00
1:55 PM,46.6,23.0,39,30.11,10.0,North,-9999.0,-,N/A,,Mostly Cloudy,0,2014-02-17 18:55:00
2:15 PM,48.4,23.9,38,30.10,10.0,North,-9999.0,-,N/A,,Scattered Clouds,0,2014-02-17 19:15:00
2:35 PM,49.5,23.2,36,30.09,10.0,North,-9999.0,-,N/A,,Clear,0,2014-02-17 19:35:00
2:55 PM,49.8,23.5,36,30.07,10.0,North,-9999.0,-,N/A,,Clear,0,2014-02-17 19:55:00
3:15 PM,52.0,24.4,34,30.06,10.0,North,-9999.0,-,N/A,,Clear,0,2014-02-17 20:15:00
3:35 PM,51.6,23.9,34,30.06,10.0,North,-9999.0,-,N/A,,Mostly Cloudy,0,2014-02-17 20:35:00
3:55 PM,50.5,24.6,36,30.05,10.0,North,-9999.0,-,N/A,,Overcast,0,2014-02-17 20:55:00
4:15 PM,50.4,25.3,38,30.04,10.0,North,-9999.0,-,N/A,,Scattered Clouds,0,2014-02-17 21:15:00
4:35 PM,49.1,26.6,42,30.03,10.0,North,-9999.0,-,N/A,,Clear,0,2014-02-17 21:35:00
4:55 PM,48.4,26.6,43,30.02,10.0,North,-9999.0,-,N/A,,Clear,0,2014-02-17 21:55:00
5:15 PM,47.1,27.3,46,30.02,10.0,North,-9999.0,-,N/A,,Clear,0,2014-02-17 22:15:00
5:35 PM,45.5,27.1,49,30.01,10.0,North,-9999.0,-,N/A,,Clear,0,2014-02-17 22:35:00
5:55 PM,44.6,27.3,51,30.02,10.0,North,-9999.0,-,N/A,,Clear,0,2014-02-17 22:55:00
6:15 PM,41.4,29.3,62,30.02,10.0,North,-9999.0,-,N/A,,Scattered Clouds,0,2014-02-17 23:15:00
6:35 PM,42.8,27.9,56,30.00,10.0,North,-9999.0,-,N/A,,Scattered Clouds,0,2014-02-17 23:35:00
6:55 PM,43.3,27.5,54,30.01,10.0,North,-9999.0,-,N/A,,Mostly Cloudy,0,2014-02-17 23:55:00
7:15 PM,42.8,27.7,55,29.99,10.0,North,-9999.0,-,N/A,,Overcast,0,2014-02-18 00:15:00
7:35 PM,42.8,27.9,56,29.99,10.0,North,-9999.0,-,N/A,,Mostly Cloudy,0,2014-02-18 00:35:00
7:55 PM,42.8,28.6,57,30.00,10.0,North,-9999.0,-,N/A,,Overcast,0,2014-02-18 00:55:00
8:15 PM,40.1,32.0,73,30.00,5.0,North,-9999.0,-,N/A,,Overcast,0,2014-02-18 01:15:00
8:35 PM,39.7,32.2,74,30.00,7.0,North,-9999.0,-,N/A,,Overcast,0,2014-02-18 01:35:00
8:55 PM,38.7,34.0,83,30.00,10.0,North,-9999.0,-,N/A,,Overcast,0,2014-02-18 01:55:00
9:15 PM,38.8,33.4,81,30.01,7.0,North,-9999.0,-,N/A,,Overcast,0,2014-02-18 02:15:00
9:35 PM,36.7,35.1,94,30.02,5.0,North,-9999.0,-,N/A,,Overcast,0,2014-02-18 02:35:00
9:55 PM,36.5,35.6,97,30.03,5.0,North,-9999.0,-,N/A,,Overcast,0,2014-02-18 02:55:00
10:15 PM,36.1,35.6,98,30.02,4.0,North,-9999.0,-,N/A,,Overcast,0,2014-02-18 03:15:00
10:35 PM,36.1,35.8,99,30.02,4.0,North,-9999.0,-,N/A,,Overcast,0,2014-02-18 03:35:00
10:55 PM,36.3,36.3,100,30.03,5.0,North,-9999.0,-,N/A,,Overcast,0,2014-02-18 03:55:00
11:15 PM,36.5,36.1,99,30.03,5.0,North,-9999.0,-,N/A,,Overcast,0,2014-02-18 04:15:00
11:35 PM,36.7,36.7,100,30.02,5.0,North,-9999.0,-,N/A,,Overcast,0,2014-02-18 04:35:00
11:55 PM,37.0,36.9,99,30.02,7.0,North,-9999.0,-,N/A,,Overcast,0,2014-02-18 04:55:00